Year,Month,Day,Hour,Minute,Value (Times are PST for temperature in C)
2018,09,18,00,00,8.20
2018,09,18,00,01,8.20
2018,09,18,00,02,8.20
2018,09,18,00,03,8.20
2018,09,18,00,04,8.20
2018,09,18,00,05,8.10
2018,09,18,00,06,8.10
2018,09,18,00,07,8.10
2018,09,18,00,08,8.10
2018,09,18,00,09,8.00
2018,09,18,00,10,8.00
2018,09,18,00,11,8.00
2018,09,18,00,12,8.00
2018,09,18,00,13,7.90
2018,09,18,00,14,7.90
2018,09,18,00,15,7.80
2018,09,18,00,16,7.80
2018,09,18,00,17,7.80
2018,09,18,00,18,7.80
2018,09,18,00,19,7.70
2018,09,18,00,20,7.70
2018,09,18,00,21,7.70
2018,09,18,00,22,7.70
2018,09,18,00,23,7.70
2018,09,18,00,24,7.70
2018,09,18,00,25,7.70
2018,09,18,00,26,7.70
2018,09,18,00,27,7.70
2018,09,18,00,28,7.70
2018,09,18,00,29,7.80
2018,09,18,00,30,7.80
2018,09,18,00,31,7.80
2018,09,18,00,32,7.80
2018,09,18,00,33,7.80
2018,09,18,00,34,7.80
2018,09,18,00,35,7.80
2018,09,18,00,36,7.80
2018,09,18,00,37,7.80
2018,09,18,00,38,7.90
2018,09,18,00,39,7.90
2018,09,18,00,40,8.00
2018,09,18,00,41,8.00
2018,09,18,00,42,8.00
2018,09,18,00,43,8.00
2018,09,18,00,44,8.00
2018,09,18,00,45,8.00
2018,09,18,00,46,8.00
2018,09,18,00,47,8.00
2018,09,18,00,48,8.00
2018,09,18,00,49,8.00
2018,09,18,00,50,8.00
2018,09,18,00,51,7.90
2018,09,18,00,52,7.90
2018,09,18,00,53,7.90
2018,09,18,00,54,7.80
2018,09,18,00,55,7.80
2018,09,18,00,56,7.70
2018,09,18,00,57,7.70
2018,09,18,00,58,7.60
2018,09,18,00,59,7.60
2018,09,18,01,00,7.50
2018,09,18,01,01,7.40
2018,09,18,01,02,7.40
2018,09,18,01,03,7.40
2018,09,18,01,04,7.30
2018,09,18,01,05,7.30
2018,09,18,01,06,7.30
2018,09,18,01,07,7.30
2018,09,18,01,08,7.30
2018,09,18,01,09,7.30
2018,09,18,01,10,7.30
2018,09,18,01,11,7.30
2018,09,18,01,12,7.30
2018,09,18,01,13,7.40
2018,09,18,01,14,7.40
2018,09,18,01,15,7.50
2018,09,18,01,16,7.60
2018,09,18,01,17,7.60
2018,09,18,01,18,7.60
2018,09,18,01,19,7.70
2018,09,18,01,20,7.70
2018,09,18,01,21,7.80
2018,09,18,01,22,7.80
2018,09,18,01,23,7.80
2018,09,18,01,24,7.80
2018,09,18,01,25,7.90
2018,09,18,01,26,7.90
2018,09,18,01,27,7.90
2018,09,18,01,28,7.90
2018,09,18,01,29,7.90
2018,09,18,01,30,8.00
2018,09,18,01,31,8.00
2018,09,18,01,32,8.00
2018,09,18,01,33,8.00
2018,09,18,01,34,8.10
2018,09,18,01,35,8.10
2018,09,18,01,36,8.10
2018,09,18,01,37,8.10
2018,09,18,01,38,8.00
2018,09,18,01,39,8.00
2018,09,18,01,40,7.90
2018,09,18,01,41,7.90
2018,09,18,01,42,7.90
2018,09,18,01,43,7.90
2018,09,18,01,44,7.90
2018,09,18,01,45,7.90
2018,09,18,01,46,7.90
2018,09,18,01,47,7.90
2018,09,18,01,48,7.90
2018,09,18,01,49,8.00
2018,09,18,01,50,8.00
2018,09,18,01,51,8.00
2018,09,18,01,52,8.00
2018,09,18,01,53,7.90
2018,09,18,01,54,7.90
2018,09,18,01,55,7.90
2018,09,18,01,56,7.80
2018,09,18,01,57,7.80
2018,09,18,01,58,7.80
2018,09,18,01,59,7.70
2018,09,18,02,00,7.60
2018,09,18,02,01,7.60
2018,09,18,02,02,7.50
2018,09,18,02,03,7.50
2018,09,18,02,04,7.40
2018,09,18,02,05,7.40
2018,09,18,02,06,7.30
2018,09,18,02,07,7.30
2018,09,18,02,08,7.30
2018,09,18,02,09,7.30
2018,09,18,02,10,7.30
2018,09,18,02,11,7.30
2018,09,18,02,12,7.30
2018,09,18,02,13,7.30
2018,09,18,02,14,7.30
2018,09,18,02,15,7.30
2018,09,18,02,16,7.30
2018,09,18,02,17,7.30
2018,09,18,02,18,7.30
2018,09,18,02,19,7.20
2018,09,18,02,20,7.20
2018,09,18,02,21,7.20
2018,09,18,02,22,7.20
2018,09,18,02,23,7.20
2018,09,18,02,24,7.20
2018,09,18,02,25,7.20
2018,09,18,02,26,7.10
2018,09,18,02,27,7.10
2018,09,18,02,28,7.10
2018,09,18,02,29,7.00
2018,09,18,02,30,7.00
2018,09,18,02,31,7.00
2018,09,18,02,32,6.90
2018,09,18,02,33,6.90
2018,09,18,02,34,6.90
2018,09,18,02,35,6.90
2018,09,18,02,36,6.90
2018,09,18,02,37,6.90
2018,09,18,02,38,6.90
2018,09,18,02,39,6.90
2018,09,18,02,40,6.90
2018,09,18,02,41,6.80
2018,09,18,02,42,6.90
2018,09,18,02,43,6.90
2018,09,18,02,44,6.90
2018,09,18,02,45,6.90
2018,09,18,02,46,6.90
2018,09,18,02,47,6.90
2018,09,18,02,48,6.90
2018,09,18,02,49,6.90
2018,09,18,02,50,6.90
2018,09,18,02,51,6.90
2018,09,18,02,52,6.90
2018,09,18,02,53,6.90
2018,09,18,02,54,6.80
2018,09,18,02,55,6.80
2018,09,18,02,56,6.80
2018,09,18,02,57,6.80
2018,09,18,02,58,6.80
2018,09,18,02,59,6.80
2018,09,18,03,00,6.80
2018,09,18,03,01,6.80
2018,09,18,03,02,6.80
2018,09,18,03,03,6.80
2018,09,18,03,04,6.80
2018,09,18,03,05,6.80
2018,09,18,03,06,6.80
2018,09,18,03,07,6.80
2018,09,18,03,08,6.80
2018,09,18,03,09,6.80
2018,09,18,03,10,6.80
2018,09,18,03,11,6.80
2018,09,18,03,12,6.70
2018,09,18,03,13,6.70
2018,09,18,03,14,6.70
2018,09,18,03,15,6.70
2018,09,18,03,16,6.70
2018,09,18,03,17,6.70
2018,09,18,03,18,6.70
2018,09,18,03,19,6.70
2018,09,18,03,20,6.70
2018,09,18,03,21,6.70
2018,09,18,03,22,6.70
2018,09,18,03,23,6.70
2018,09,18,03,24,6.70
2018,09,18,03,25,6.70
2018,09,18,03,26,6.70
2018,09,18,03,27,6.70
2018,09,18,03,28,6.70
2018,09,18,03,29,6.70
2018,09,18,03,30,6.70
2018,09,18,03,31,6.60
2018,09,18,03,32,6.60
2018,09,18,03,33,6.60
2018,09,18,03,34,6.60
2018,09,18,03,35,6.60
2018,09,18,03,36,6.60
2018,09,18,03,37,6.60
2018,09,18,03,38,6.60
2018,09,18,03,39,6.50
2018,09,18,03,40,6.40
2018,09,18,03,41,6.40
2018,09,18,03,42,6.40
2018,09,18,03,43,6.40
2018,09,18,03,44,6.40
2018,09,18,03,45,6.40
2018,09,18,03,46,6.40
2018,09,18,03,47,6.40
2018,09,18,03,48,6.30
2018,09,18,03,49,6.30
2018,09,18,03,50,6.30
2018,09,18,03,51,6.20
2018,09,18,03,52,6.20
2018,09,18,03,53,6.20
2018,09,18,03,54,6.20
2018,09,18,03,55,6.20
2018,09,18,03,56,6.20
2018,09,18,03,57,6.20
2018,09,18,03,58,6.20
2018,09,18,03,59,6.20
2018,09,18,04,00,6.20
2018,09,18,04,01,6.20
2018,09,18,04,02,6.20
2018,09,18,04,03,6.20
2018,09,18,04,04,6.20
2018,09,18,04,05,6.20
2018,09,18,04,06,6.20
2018,09,18,04,07,6.20
2018,09,18,04,08,6.30
2018,09,18,04,09,6.20
2018,09,18,04,10,6.20
2018,09,18,04,11,6.20
2018,09,18,04,12,6.20
2018,09,18,04,13,6.20
2018,09,18,04,14,6.20
2018,09,18,04,15,6.30
2018,09,18,04,16,6.30
2018,09,18,04,17,6.30
2018,09,18,04,18,6.30
2018,09,18,04,19,6.30
2018,09,18,04,20,6.30
2018,09,18,04,21,6.40
2018,09,18,04,22,6.40
2018,09,18,04,23,6.40
2018,09,18,04,24,6.40
2018,09,18,04,25,6.40
2018,09,18,04,26,6.40
2018,09,18,04,27,6.40
2018,09,18,04,28,6.30
2018,09,18,04,29,6.30
2018,09,18,04,30,6.30
2018,09,18,04,31,6.30
2018,09,18,04,32,6.20
2018,09,18,04,33,6.20
2018,09,18,04,34,6.20
2018,09,18,04,35,6.10
2018,09,18,04,36,6.10
2018,09,18,04,37,6.00
2018,09,18,04,38,6.00
2018,09,18,04,39,5.90
2018,09,18,04,40,5.90
2018,09,18,04,41,5.90
2018,09,18,04,42,5.90
2018,09,18,04,43,5.90
2018,09,18,04,44,5.90
2018,09,18,04,45,5.90
2018,09,18,04,46,5.90
2018,09,18,04,47,5.90
2018,09,18,04,48,6.00
2018,09,18,04,49,6.00
2018,09,18,04,50,6.00
2018,09,18,04,51,6.10
2018,09,18,04,52,6.10
2018,09,18,04,53,6.20
2018,09,18,04,54,6.20
2018,09,18,04,55,6.20
2018,09,18,04,56,6.30
2018,09,18,04,57,6.30
2018,09,18,04,58,6.40
2018,09,18,04,59,6.40
2018,09,18,05,00,6.50
2018,09,18,05,01,6.60
2018,09,18,05,02,6.60
2018,09,18,05,03,6.60
2018,09,18,05,04,6.60
2018,09,18,05,05,6.60
2018,09,18,05,06,6.60
2018,09,18,05,07,6.60
2018,09,18,05,08,6.60
2018,09,18,05,09,6.50
2018,09,18,05,10,6.40
2018,09,18,05,11,6.40
2018,09,18,05,12,6.40
2018,09,18,05,13,6.30
2018,09,18,05,14,6.30
2018,09,18,05,15,6.20
2018,09,18,05,16,6.20
2018,09,18,05,17,6.20
2018,09,18,05,18,6.20
2018,09,18,05,19,6.20
2018,09,18,05,20,6.10
2018,09,18,05,21,6.10
2018,09,18,05,22,6.10
2018,09,18,05,23,6.00
2018,09,18,05,24,6.00
2018,09,18,05,25,6.00
2018,09,18,05,26,5.90
2018,09,18,05,27,5.90
2018,09,18,05,28,5.80
2018,09,18,05,29,5.80
2018,09,18,05,30,5.80
2018,09,18,05,31,5.80
2018,09,18,05,32,5.90
2018,09,18,05,33,5.90
2018,09,18,05,34,5.90
2018,09,18,05,35,5.90
2018,09,18,05,36,6.00
2018,09,18,05,37,6.00
2018,09,18,05,38,6.00
2018,09,18,05,39,6.10
2018,09,18,05,40,6.10
2018,09,18,05,41,6.20
2018,09,18,05,42,6.20
2018,09,18,05,43,6.20
2018,09,18,05,44,6.20
2018,09,18,05,45,6.20
2018,09,18,05,46,6.20
2018,09,18,05,47,6.20
2018,09,18,05,48,6.20
2018,09,18,05,49,6.30
2018,09,18,05,50,6.30
2018,09,18,05,51,6.20
2018,09,18,05,52,6.20
2018,09,18,05,53,6.20
2018,09,18,05,54,6.20
2018,09,18,05,55,6.20
2018,09,18,05,56,6.20
2018,09,18,05,57,6.10
2018,09,18,05,58,6.10
2018,09,18,05,59,6.10
2018,09,18,06,00,6.10
2018,09,18,06,01,6.10
2018,09,18,06,02,6.10
2018,09,18,06,03,6.10
2018,09,18,06,04,6.20
2018,09,18,06,05,6.20
2018,09,18,06,06,6.20
2018,09,18,06,07,6.20
2018,09,18,06,08,6.20
2018,09,18,06,09,6.20
2018,09,18,06,10,6.20
2018,09,18,06,11,6.30
2018,09,18,06,12,6.30
2018,09,18,06,13,6.30
2018,09,18,06,14,6.40
2018,09,18,06,15,6.40
2018,09,18,06,16,6.40
2018,09,18,06,17,6.50
2018,09,18,06,18,6.60
2018,09,18,06,19,6.60
2018,09,18,06,20,6.60
2018,09,18,06,21,6.60
2018,09,18,06,22,6.60
2018,09,18,06,23,6.50
2018,09,18,06,24,6.40
2018,09,18,06,25,6.30
2018,09,18,06,26,6.20
2018,09,18,06,27,6.20
2018,09,18,06,28,6.20
2018,09,18,06,29,6.20
2018,09,18,06,30,6.20
2018,09,18,06,31,6.20
2018,09,18,06,32,6.20
2018,09,18,06,33,6.20
2018,09,18,06,34,6.20
2018,09,18,06,35,6.30
2018,09,18,06,36,6.40
2018,09,18,06,37,6.40
2018,09,18,06,38,6.40
2018,09,18,06,39,6.60
2018,09,18,06,40,6.60
2018,09,18,06,41,6.60
2018,09,18,06,42,6.60
2018,09,18,06,43,6.70
2018,09,18,06,44,6.70
2018,09,18,06,45,6.70
2018,09,18,06,46,6.70
2018,09,18,06,47,6.80
2018,09,18,06,48,6.80
2018,09,18,06,49,6.90
2018,09,18,06,50,7.00
2018,09,18,06,51,7.10
2018,09,18,06,52,7.20
2018,09,18,06,53,7.30
2018,09,18,06,54,7.40
2018,09,18,06,55,7.50
2018,09,18,06,56,7.50
2018,09,18,06,57,7.60
2018,09,18,06,58,7.60
2018,09,18,06,59,7.60
2018,09,18,07,00,7.60
2018,09,18,07,01,7.40
2018,09,18,07,02,7.20
2018,09,18,07,03,7.00
2018,09,18,07,04,6.80
2018,09,18,07,05,6.60
2018,09,18,07,06,6.40
2018,09,18,07,07,6.30
2018,09,18,07,08,6.20
2018,09,18,07,09,6.10
2018,09,18,07,10,6.00
2018,09,18,07,11,6.00
2018,09,18,07,12,6.00
2018,09,18,07,13,6.00
2018,09,18,07,14,6.00
2018,09,18,07,15,6.00
2018,09,18,07,16,6.10
2018,09,18,07,17,6.20
2018,09,18,07,18,6.20
2018,09,18,07,19,6.30
2018,09,18,07,20,6.40
2018,09,18,07,21,6.60
2018,09,18,07,22,6.70
2018,09,18,07,23,6.70
2018,09,18,07,24,6.80
2018,09,18,07,25,6.80
2018,09,18,07,26,6.90
2018,09,18,07,27,7.00
2018,09,18,07,28,7.10
2018,09,18,07,29,7.20
2018,09,18,07,30,7.30
2018,09,18,07,31,7.30
2018,09,18,07,32,7.20
2018,09,18,07,33,7.10
2018,09,18,07,34,7.10
2018,09,18,07,35,7.00
2018,09,18,07,36,7.00
2018,09,18,07,37,7.00
2018,09,18,07,38,7.00
2018,09,18,07,39,7.00
2018,09,18,07,40,6.90
2018,09,18,07,41,6.90
2018,09,18,07,42,6.90
2018,09,18,07,43,6.80
2018,09,18,07,44,6.80
2018,09,18,07,45,6.80
2018,09,18,07,46,6.80
2018,09,18,07,47,6.80
2018,09,18,07,48,6.80
2018,09,18,07,49,6.90
2018,09,18,07,50,6.90
2018,09,18,07,51,7.00
2018,09,18,07,52,7.10
2018,09,18,07,53,7.10
2018,09,18,07,54,7.20
2018,09,18,07,55,7.20
2018,09,18,07,56,7.30
2018,09,18,07,57,7.30
2018,09,18,07,58,7.30
2018,09,18,07,59,7.30
2018,09,18,08,00,7.40
2018,09,18,08,01,7.50
2018,09,18,08,02,7.50
2018,09,18,08,03,7.60
2018,09,18,08,04,7.70
2018,09,18,08,05,7.70
2018,09,18,08,06,7.80
2018,09,18,08,07,7.80
2018,09,18,08,08,7.80
2018,09,18,08,09,7.90
2018,09,18,08,10,8.00
2018,09,18,08,11,8.00
2018,09,18,08,12,8.00
2018,09,18,08,13,8.10
2018,09,18,08,14,8.10
2018,09,18,08,15,8.10
2018,09,18,08,16,8.20
2018,09,18,08,17,8.20
2018,09,18,08,18,8.20
2018,09,18,08,19,8.30
2018,09,18,08,20,8.40
2018,09,18,08,21,8.50
2018,09,18,08,22,8.60
2018,09,18,08,23,8.60
2018,09,18,08,24,8.70
2018,09,18,08,25,8.70
2018,09,18,08,26,8.70
2018,09,18,08,27,8.80
2018,09,18,08,28,8.90
2018,09,18,08,29,9.00
2018,09,18,08,30,9.20
2018,09,18,08,31,9.30
2018,09,18,08,32,9.50
2018,09,18,08,33,9.60
2018,09,18,08,34,9.70
2018,09,18,08,35,9.70
2018,09,18,08,36,9.80
2018,09,18,08,37,9.90
2018,09,18,08,38,10.00
2018,09,18,08,39,10.10
2018,09,18,08,40,10.20
2018,09,18,08,41,10.30
2018,09,18,08,42,10.40
2018,09,18,08,43,10.50
2018,09,18,08,44,10.60
2018,09,18,08,45,10.60
2018,09,18,08,46,10.70
2018,09,18,08,47,10.70
2018,09,18,08,48,10.80
2018,09,18,08,49,10.90
2018,09,18,08,50,10.90
2018,09,18,08,51,10.90
2018,09,18,08,52,10.90
2018,09,18,08,53,10.90
2018,09,18,08,54,10.90
2018,09,18,08,55,11.00
2018,09,18,08,56,11.10
2018,09,18,08,57,11.10
2018,09,18,08,58,11.10
2018,09,18,08,59,11.10
2018,09,18,09,00,11.10
2018,09,18,09,01,11.10
2018,09,18,09,02,11.20
2018,09,18,09,03,11.30
2018,09,18,09,04,11.30
2018,09,18,09,05,11.40
2018,09,18,09,06,11.40
2018,09,18,09,07,11.40
2018,09,18,09,08,11.40
2018,09,18,09,09,11.50
2018,09,18,09,10,11.60
2018,09,18,09,11,11.60
2018,09,18,09,12,11.60
2018,09,18,09,13,11.70
2018,09,18,09,14,11.80
2018,09,18,09,15,11.80
2018,09,18,09,16,11.90
2018,09,18,09,17,12.00
2018,09,18,09,18,12.10
2018,09,18,09,19,12.10
2018,09,18,09,20,12.10
2018,09,18,09,21,12.20
2018,09,18,09,22,12.40
2018,09,18,09,23,12.50
2018,09,18,09,24,12.60
2018,09,18,09,25,12.60
2018,09,18,09,26,12.50
2018,09,18,09,27,12.50
2018,09,18,09,28,12.60
2018,09,18,09,29,12.70
2018,09,18,09,30,12.80
2018,09,18,09,31,12.80
2018,09,18,09,32,12.80
2018,09,18,09,33,12.80
2018,09,18,09,34,12.90
2018,09,18,09,35,12.90
2018,09,18,09,36,13.00
2018,09,18,09,37,13.10
2018,09,18,09,38,13.20
2018,09,18,09,39,13.30
2018,09,18,09,40,13.40
2018,09,18,09,41,13.50
2018,09,18,09,42,13.60
2018,09,18,09,43,13.70
2018,09,18,09,44,13.70
2018,09,18,09,45,13.70
2018,09,18,09,46,13.80
2018,09,18,09,47,13.90
2018,09,18,09,48,14.00
2018,09,18,09,49,14.00
2018,09,18,09,50,14.00
2018,09,18,09,51,14.10
2018,09,18,09,52,14.10
2018,09,18,09,53,14.10
2018,09,18,09,54,14.20
2018,09,18,09,55,14.20
2018,09,18,09,56,14.40
2018,09,18,09,57,14.40
2018,09,18,09,58,14.40
2018,09,18,09,59,14.40
2018,09,18,10,00,14.40
2018,09,18,10,01,14.40
2018,09,18,10,02,14.40
2018,09,18,10,03,14.40
2018,09,18,10,04,14.50
2018,09,18,10,05,14.60
2018,09,18,10,06,14.70
2018,09,18,10,07,14.80
2018,09,18,10,08,14.90
2018,09,18,10,09,15.00
2018,09,18,10,10,15.10
2018,09,18,10,11,15.10
2018,09,18,10,12,15.10
2018,09,18,10,13,15.10
2018,09,18,10,14,15.10
2018,09,18,10,15,15.10
2018,09,18,10,16,15.10
2018,09,18,10,17,15.10
2018,09,18,10,18,15.20
2018,09,18,10,19,15.20
2018,09,18,10,20,15.10
2018,09,18,10,21,15.10
2018,09,18,10,22,15.00
2018,09,18,10,23,15.00
2018,09,18,10,24,14.90
2018,09,18,10,25,15.00
2018,09,18,10,26,15.00
2018,09,18,10,27,14.90
2018,09,18,10,28,14.80
2018,09,18,10,29,14.80
2018,09,18,10,30,14.80
2018,09,18,10,31,14.80
2018,09,18,10,32,14.80
2018,09,18,10,33,14.70
2018,09,18,10,34,14.70
2018,09,18,10,35,14.70
2018,09,18,10,36,14.70
2018,09,18,10,37,14.80
2018,09,18,10,38,14.80
2018,09,18,10,39,15.00
2018,09,18,10,40,15.00
2018,09,18,10,41,15.10
2018,09,18,10,42,15.00
2018,09,18,10,43,14.90
2018,09,18,10,44,14.80
2018,09,18,10,45,14.80
2018,09,18,10,46,14.80
2018,09,18,10,47,14.80
2018,09,18,10,48,14.80
2018,09,18,10,49,14.80
2018,09,18,10,50,14.70
2018,09,18,10,51,14.80
2018,09,18,10,52,14.80
2018,09,18,10,53,14.80
2018,09,18,10,54,14.80
2018,09,18,10,55,14.90
2018,09,18,10,56,15.00
2018,09,18,10,57,15.00
2018,09,18,10,58,15.00
2018,09,18,10,59,15.10
2018,09,18,11,00,15.20
2018,09,18,11,01,15.30
2018,09,18,11,02,15.30
2018,09,18,11,03,15.40
2018,09,18,11,04,15.40
2018,09,18,11,05,15.50
2018,09,18,11,06,15.50
2018,09,18,11,07,15.60
2018,09,18,11,08,15.80
2018,09,18,11,09,15.90
2018,09,18,11,10,16.00
2018,09,18,11,11,16.20
2018,09,18,11,12,16.30
2018,09,18,11,13,16.40
2018,09,18,11,14,16.40
2018,09,18,11,15,16.50
2018,09,18,11,16,16.60
2018,09,18,11,17,16.70
2018,09,18,11,18,16.70
2018,09,18,11,19,16.70
2018,09,18,11,20,16.60
2018,09,18,11,21,16.50
2018,09,18,11,22,16.50
2018,09,18,11,23,16.40
2018,09,18,11,24,16.40
2018,09,18,11,25,16.40
2018,09,18,11,26,16.40
2018,09,18,11,27,16.30
2018,09,18,11,28,16.30
2018,09,18,11,29,16.30
2018,09,18,11,30,16.30
2018,09,18,11,31,16.30
2018,09,18,11,32,16.40
2018,09,18,11,33,16.40
2018,09,18,11,34,16.40
2018,09,18,11,35,16.40
2018,09,18,11,36,16.40
2018,09,18,11,37,16.40
2018,09,18,11,38,16.40
2018,09,18,11,39,16.40
2018,09,18,11,40,16.40
2018,09,18,11,41,16.30
2018,09,18,11,42,16.30
2018,09,18,11,43,16.30
2018,09,18,11,44,16.30
2018,09,18,11,45,16.40
2018,09,18,11,46,16.50
2018,09,18,11,47,16.60
2018,09,18,11,48,16.70
2018,09,18,11,49,16.70
2018,09,18,11,50,16.80
2018,09,18,11,51,16.80
2018,09,18,11,52,16.80
2018,09,18,11,53,16.80
2018,09,18,11,54,16.80
2018,09,18,11,55,16.80
2018,09,18,11,56,16.80
2018,09,18,11,57,16.70
2018,09,18,11,58,16.60
2018,09,18,11,59,16.70
2018,09,18,12,00,16.70
2018,09,18,12,01,16.70
2018,09,18,12,02,16.70
2018,09,18,12,03,16.70
2018,09,18,12,04,16.60
2018,09,18,12,05,16.60
2018,09,18,12,06,16.70
2018,09,18,12,07,16.70
2018,09,18,12,08,16.70
2018,09,18,12,09,16.60
2018,09,18,12,10,16.50
2018,09,18,12,11,16.60
2018,09,18,12,12,16.70
2018,09,18,12,13,16.70
2018,09,18,12,14,16.80
2018,09,18,12,15,16.90
2018,09,18,12,16,16.90
2018,09,18,12,17,17.00
2018,09,18,12,18,16.90
2018,09,18,12,19,16.90
2018,09,18,12,20,17.00
2018,09,18,12,21,16.90
2018,09,18,12,22,16.90
2018,09,18,12,23,16.90
2018,09,18,12,24,16.90
2018,09,18,12,25,16.90
2018,09,18,12,26,16.90
2018,09,18,12,27,17.00
2018,09,18,12,28,17.00
2018,09,18,12,29,17.00
2018,09,18,12,30,17.10
2018,09,18,12,31,17.30
2018,09,18,12,32,17.40
2018,09,18,12,33,17.60
2018,09,18,12,34,17.70
2018,09,18,12,35,17.70
2018,09,18,12,36,17.80
2018,09,18,12,37,17.90
2018,09,18,12,38,18.00
2018,09,18,12,39,18.20
2018,09,18,12,40,18.20
2018,09,18,12,41,18.20
2018,09,18,12,42,18.10
2018,09,18,12,43,18.10
2018,09,18,12,44,18.00
2018,09,18,12,45,17.90
2018,09,18,12,46,17.70
2018,09,18,12,47,17.50
2018,09,18,12,48,17.40
2018,09,18,12,49,17.30
2018,09,18,12,50,17.20
2018,09,18,12,51,17.20
2018,09,18,12,52,17.20
2018,09,18,12,53,17.20
2018,09,18,12,54,17.20
2018,09,18,12,55,17.20
2018,09,18,12,56,17.30
2018,09,18,12,57,17.40
2018,09,18,12,58,17.40
2018,09,18,12,59,17.50
2018,09,18,13,00,17.60
2018,09,18,13,01,17.60
2018,09,18,13,02,17.40
2018,09,18,13,03,17.30
2018,09,18,13,04,17.30
2018,09,18,13,05,17.40
2018,09,18,13,06,17.50
2018,09,18,13,07,17.50
2018,09,18,13,08,17.50
2018,09,18,13,09,17.50
2018,09,18,13,10,17.40
2018,09,18,13,11,17.40
2018,09,18,13,12,17.30
2018,09,18,13,13,17.30
2018,09,18,13,14,17.30
2018,09,18,13,15,17.30
2018,09,18,13,16,17.30
2018,09,18,13,17,17.30
2018,09,18,13,18,17.30
2018,09,18,13,19,17.30
2018,09,18,13,20,17.10
2018,09,18,13,21,17.00
2018,09,18,13,22,17.00
2018,09,18,13,23,16.90
2018,09,18,13,24,16.80
2018,09,18,13,25,16.80
2018,09,18,13,26,16.80
2018,09,18,13,27,16.90
2018,09,18,13,28,16.90
2018,09,18,13,29,17.00
2018,09,18,13,30,17.00
2018,09,18,13,31,17.00
2018,09,18,13,32,17.10
2018,09,18,13,33,17.20
2018,09,18,13,34,17.20
2018,09,18,13,35,17.30
2018,09,18,13,36,17.30
2018,09,18,13,37,17.20
2018,09,18,13,38,17.10
2018,09,18,13,39,17.20
2018,09,18,13,40,17.30
2018,09,18,13,41,17.20
2018,09,18,13,42,17.20
2018,09,18,13,43,17.30
2018,09,18,13,44,17.30
2018,09,18,13,45,17.40
2018,09,18,13,46,17.30
2018,09,18,13,47,17.30
2018,09,18,13,48,17.30
2018,09,18,13,49,17.20
2018,09,18,13,50,17.10
2018,09,18,13,51,16.90
2018,09,18,13,52,16.80
2018,09,18,13,53,16.80
2018,09,18,13,54,16.90
2018,09,18,13,55,17.00
2018,09,18,13,56,17.10
2018,09,18,13,57,17.10
2018,09,18,13,58,17.30
2018,09,18,13,59,17.40
2018,09,18,14,00,17.50
2018,09,18,14,01,17.60
2018,09,18,14,02,17.50
2018,09,18,14,03,17.40
2018,09,18,14,04,17.40
2018,09,18,14,05,17.30
2018,09,18,14,06,17.30
2018,09,18,14,07,17.30
2018,09,18,14,08,17.20
2018,09,18,14,09,17.30
2018,09,18,14,10,17.40
2018,09,18,14,11,17.50
2018,09,18,14,12,17.60
2018,09,18,14,13,17.70
2018,09,18,14,14,17.80
2018,09,18,14,15,17.90
2018,09,18,14,16,17.80
2018,09,18,14,17,17.80
2018,09,18,14,18,17.80
2018,09,18,14,19,17.90
2018,09,18,14,20,17.90
2018,09,18,14,21,17.90
2018,09,18,14,22,17.90
2018,09,18,14,23,17.90
2018,09,18,14,24,17.90
2018,09,18,14,25,18.00
2018,09,18,14,26,18.10
2018,09,18,14,27,18.20
2018,09,18,14,28,18.20
2018,09,18,14,29,18.20
2018,09,18,14,30,18.20
2018,09,18,14,31,18.10
2018,09,18,14,32,18.20
2018,09,18,14,33,18.30
2018,09,18,14,34,18.50
2018,09,18,14,35,18.60
2018,09,18,14,36,18.70
2018,09,18,14,37,18.80
2018,09,18,14,38,18.80
2018,09,18,14,39,18.70
2018,09,18,14,40,18.60
2018,09,18,14,41,18.60
2018,09,18,14,42,18.60
2018,09,18,14,43,18.60
2018,09,18,14,44,18.60
2018,09,18,14,45,18.60
2018,09,18,14,46,18.60
2018,09,18,14,47,18.50
2018,09,18,14,48,18.20
2018,09,18,14,49,18.00
2018,09,18,14,50,17.90
2018,09,18,14,51,17.70
2018,09,18,14,52,17.60
2018,09,18,14,53,17.70
2018,09,18,14,54,17.70
2018,09,18,14,55,17.70
2018,09,18,14,56,17.80
2018,09,18,14,57,17.90
2018,09,18,14,58,18.00
2018,09,18,14,59,18.10
2018,09,18,15,00,18.20
2018,09,18,15,01,18.20
2018,09,18,15,02,18.30
2018,09,18,15,03,18.30
2018,09,18,15,04,18.30
2018,09,18,15,05,18.30
2018,09,18,15,06,18.20
2018,09,18,15,07,18.20
2018,09,18,15,08,18.20
2018,09,18,15,09,18.20
2018,09,18,15,10,18.20
2018,09,18,15,11,18.20
2018,09,18,15,12,18.20
2018,09,18,15,13,18.20
2018,09,18,15,14,18.10
2018,09,18,15,15,17.90
2018,09,18,15,16,17.90
2018,09,18,15,17,17.80
2018,09,18,15,18,17.70
2018,09,18,15,19,17.70
2018,09,18,15,20,17.60
2018,09,18,15,21,17.60
2018,09,18,15,22,17.50
2018,09,18,15,23,17.50
2018,09,18,15,24,17.50
2018,09,18,15,25,17.60
2018,09,18,15,26,17.50
2018,09,18,15,27,17.50
2018,09,18,15,28,17.50
2018,09,18,15,29,17.40
2018,09,18,15,30,17.30
2018,09,18,15,31,17.30
2018,09,18,15,32,17.30
2018,09,18,15,33,17.30
2018,09,18,15,34,17.30
2018,09,18,15,35,17.40
2018,09,18,15,36,17.50
2018,09,18,15,37,17.50
2018,09,18,15,38,17.50
2018,09,18,15,39,17.50
2018,09,18,15,40,17.50
2018,09,18,15,41,17.50
2018,09,18,15,42,17.50
2018,09,18,15,43,17.30
2018,09,18,15,44,17.10
2018,09,18,15,45,16.90
2018,09,18,15,46,16.90
2018,09,18,15,47,17.00
2018,09,18,15,48,17.00
2018,09,18,15,49,17.10
2018,09,18,15,50,17.20
2018,09,18,15,51,17.30
2018,09,18,15,52,17.30
2018,09,18,15,53,17.30
2018,09,18,15,54,17.40
2018,09,18,15,55,17.50
2018,09,18,15,56,17.50
2018,09,18,15,57,17.60
2018,09,18,15,58,17.60
2018,09,18,15,59,17.70
2018,09,18,16,00,17.70
2018,09,18,16,01,17.70
2018,09,18,16,02,17.60
2018,09,18,16,03,17.40
2018,09,18,16,04,17.20
2018,09,18,16,05,17.00
2018,09,18,16,06,16.80
2018,09,18,16,07,16.70
2018,09,18,16,08,16.70
2018,09,18,16,09,16.70
2018,09,18,16,10,16.70
2018,09,18,16,11,16.70
2018,09,18,16,12,16.70
2018,09,18,16,13,16.70
2018,09,18,16,14,16.70
2018,09,18,16,15,16.70
2018,09,18,16,16,16.60
2018,09,18,16,17,16.50
2018,09,18,16,18,16.40
2018,09,18,16,19,16.40
2018,09,18,16,20,16.40
2018,09,18,16,21,16.40
2018,09,18,16,22,16.60
2018,09,18,16,23,16.60
2018,09,18,16,24,16.60
2018,09,18,16,25,16.50
2018,09,18,16,26,16.40
2018,09,18,16,27,16.40
2018,09,18,16,28,16.60
2018,09,18,16,29,16.60
2018,09,18,16,30,16.60
2018,09,18,16,31,16.50
2018,09,18,16,32,16.40
2018,09,18,16,33,16.40
2018,09,18,16,34,16.40
2018,09,18,16,35,16.40
2018,09,18,16,36,16.50
2018,09,18,16,37,16.60
2018,09,18,16,38,16.50
2018,09,18,16,39,16.40
2018,09,18,16,40,16.40
2018,09,18,16,41,16.50
2018,09,18,16,42,16.60
2018,09,18,16,43,16.60
2018,09,18,16,44,16.70
2018,09,18,16,45,16.70
2018,09,18,16,46,16.80
2018,09,18,16,47,16.80
2018,09,18,16,48,16.90
2018,09,18,16,49,16.90
2018,09,18,16,50,16.90
2018,09,18,16,51,16.90
2018,09,18,16,52,16.80
2018,09,18,16,53,16.80
2018,09,18,16,54,16.70
2018,09,18,16,55,16.70
2018,09,18,16,56,16.70
2018,09,18,16,57,16.70
2018,09,18,16,58,16.70
2018,09,18,16,59,16.70
2018,09,18,17,00,16.60
2018,09,18,17,01,16.60
2018,09,18,17,02,16.60
2018,09,18,17,03,16.50
2018,09,18,17,04,16.40
2018,09,18,17,05,16.40
2018,09,18,17,06,16.40
2018,09,18,17,07,16.40
2018,09,18,17,08,16.40
2018,09,18,17,09,16.40
2018,09,18,17,10,16.40
2018,09,18,17,11,16.40
2018,09,18,17,12,16.30
2018,09,18,17,13,16.30
2018,09,18,17,14,16.30
2018,09,18,17,15,16.30
2018,09,18,17,16,16.20
2018,09,18,17,17,16.10
2018,09,18,17,18,16.10
2018,09,18,17,19,16.00
2018,09,18,17,20,15.90
2018,09,18,17,21,15.80
2018,09,18,17,22,15.80
2018,09,18,17,23,15.80
2018,09,18,17,24,15.70
2018,09,18,17,25,15.70
2018,09,18,17,26,15.60
2018,09,18,17,27,15.50
2018,09,18,17,28,15.50
2018,09,18,17,29,15.40
2018,09,18,17,30,15.30
2018,09,18,17,31,15.30
2018,09,18,17,32,15.30
2018,09,18,17,33,15.30
2018,09,18,17,34,15.20
2018,09,18,17,35,15.10
2018,09,18,17,36,15.10
2018,09,18,17,37,15.10
2018,09,18,17,38,15.00
2018,09,18,17,39,15.00
2018,09,18,17,40,15.00
2018,09,18,17,41,14.90